This is the latest recevied weather packets stored in our database for station/object KG7FOQ-13. If no packets are shown the sender has not sent any weather packets the latest 10 day(s).
| Time | Temp. | Humidity | Pressure | Rain* | Wind** | Luminosity | Snow |
|---|---|---|---|---|---|---|---|
| 1777688834 | 18.33° C | 19% | 1017.8 hPa | 0 mm | - | - | - |
| 1777688534 | 18.33° C | 18% | 1017.8 hPa | 0 mm | - | - | - |
| 1777688233 | 18.33° C | 18% | 1017.8 hPa | 0 mm | - | - | - |
| 1777687932 | 18.33° C | 18% | 1017.8 hPa | 0 mm | - | - | - |
| 1777687632 | 18.89° C | 18% | 1017.8 hPa | 0 mm | - | - | - |
| 1777687331 | 18.89° C | 19% | 1017.8 hPa | 0 mm | - | - | - |
| 1777687031 | 18.89° C | 20% | 1017.8 hPa | 0 mm | - | - | - |
| 1777686730 | 18.89° C | 21% | 1017.8 hPa | 0 mm | - | - | - |
| 1777686430 | 18.33° C | 23% | 1017.8 hPa | 0 mm | - | - | - |
| 1777686129 | 18.89° C | 19% | 1017.9 hPa | 0 mm | - | - | - |
| 1777685829 | 18.89° C | 20% | 1017.9 hPa | 0 mm | - | - | - |
| 1777685528 | 19.44° C | 17% | 1018 hPa | 0 mm | - | - | - |
| 1777685227 | 19.44° C | 17% | 1017.9 hPa | 0 mm | - | - | - |
| 1777684927 | 19.44° C | 15% | 1017.9 hPa | 0 mm | - | - | - |
| 1777684626 | 19.44° C | 15% | 1018 hPa | 0 mm | - | - | - |
| 1777684326 | 20° C | 14% | 1018 hPa | 0 mm | - | - | - |
| 1777684024 | 19.44° C | 14% | 1018 hPa | 0 mm | - | - | - |
| 1777683723 | 19.44° C | 16% | 1018.1 hPa | 0 mm | - | - | - |
| 1777683424 | 19.44° C | 17% | 1018.1 hPa | 0 mm | - | - | - |
| 1777683122 | 20° C | 16% | 1018.1 hPa | 0 mm | - | - | - |
| 1777682822 | 20° C | 15% | 1018.1 hPa | 0 mm | - | - | - |
| 1777682521 | 19.44° C | 14% | 1018.1 hPa | 0 mm | - | - | - |
| 1777682220 | 19.44° C | 14% | 1018.1 hPa | 0 mm | - | - | - |
| 1777681920 | 18.89° C | 15% | 1018.1 hPa | 0 mm | - | - | - |
| 1777681618 | 19.44° C | 16% | 1018.2 hPa | 0 mm | - | - | - |
* Rain latest hour (hover to see other rain measurements)
** Current wind speed in m/s (hover to see current wind gust speed)